Location: Lachepaillet
(43.4918°N, 1.4874°W)
Time: 00:39:35
(UTC+00:00)

NOSS 3-4 (C) - Pass Details

Date: 15 May 2026
Orbit: 773 x 1438 km, 63.4° (Epoch: 26 December)

Event Time Altitude Azimuth Distance (km) Brightness Sun altitude
Rises 22:31:31 0° 319° (NW) 3,791 7.8 -24.1°
Reaches altitude 10° 22:34:02 10° 314° (NW) 2,926 6.9 -24.3°
Maximum altitude 22:40:48 51° 241° (WSW) 1,482 4.3 -24.7°
Enters shadow 22:43:10 39° 195° (SSW) 1,778 4.4 -24.9°
